Theta_e
319 321 322 323 324 325 325 326 326 326 326 327 327 328 328 329 329 329 328 328 328 327 326 326 326 324 323 323 323 322 322 321 320 320 319 318 317 316 314 313 313 313 313 311 308 306 304 298 293 291 291 290 290 289 289 289 288 288 288 288 288 289 289 288 290 290 289 287 286 286 286 286 286 286 285 285 285 285 285 285 284 284 284 284 284
316 319 321 323 323 323 324 324 324 325 326 326 327 328 328 328 328 328 328 327 326 326 326 325 324 324 323 322 321 321 320 319 318 318 317 316 315 314 313 312 313 311 309 305 300 297 295 291 290 290 289 289 289 288 288 288 288 287 287 287 287 287 287 286 287 288 288 287 285 285 286 286 285 285 285 285 285 285 284 284 284 284 284 284 284
314 317 319 321 322 322 323 323 324 325 325 326 326 327 328 327 327 327 327 326 325 325 324 323 323 322 322 321 320 319 318 317 317 316 316 315 313 312 311 311 312 308 301 297 294 291 290 290 289 289 289 288 288 288 287 287 287 287 287 287 286 286 285 284 285 286 286 286 285 285 285 285 285 285 285 285 285 285 284 284 284 284 284 284 284
315 317 318 319 320 321 321 322 323 324 325 325 326 326 326 326 326 326 326 325 325 324 323 322 322 321 321 320 319 317 316 315 314 314 314 314 312 311 309 309 306 300 294 291 290 289 289 289 289 288 288 288 287 287 287 287 286 286 286 286 285 284 284 284 284 284 284 285 285 284 284 284 284 284 284 284 285 285 285 284 284 284 284 284 284
315 316 318 318 318 318 319 320 322 323 324 324 325 325 325 325 324 324 324 324 324 322 320 320 320 320 319 318 317 315 314 314 313 312 311 310 309 308 306 302 297 292 290 290 289 289 289 289 288 288 287 287 287 287 286 286 286 286 285 284 284 284 283 283 283 283 283 284 284 284 284 284 284 284 284 283 284 284 284 284 284 284 284 284 284
314 316 317 318 319 319 319 320 321 322 323 324 324 324 323 324 323 322 323 323 321 319 318 318 318 317 317 316 316 315 313 312 312 311 309 307 307 304 298 294 291 289 289 289 288 288 288 288 288 287 287 287 287 286 286 286 285 285 284 284 283 283 283 283 283 283 283 284 284 284 284 283 283 284 284 283 283 284 284 284 284 284 284 284 284
316 317 319 320 320 320 320 321 321 322 323 322 322 322 323 322 322 321 320 320 318 317 316 316 316 316 316 315 314 313 312 311 310 309 307 306 303 297 292 289 289 289 289 288 288 288 288 288 287 287 287 287 286 286 285 285 284 284 284 283 283 283 283 283 283 283 283 283 284 283 283 283 283 283 283 283 283 283 284 284 284 284 284 284 284
317 319 319 320 320 320 320 321 321 321 321 321 320 321 320 319 319 318 318 317 317 317 317 315 315 314 314 313 312 311 310 309 307 306 304 300 295 291 289 289 289 288 288 288 287 287 287 287 287 286 286 286 286 286 285 284 283 283 283 283 283 283 283 283 283 283 283 283 283 283 283 283 283 283 283 283 283 284 283 283 283 283 284 284 284
318 319 319 318 318 319 319 319 320 320 319 319 319 319 317 317 317 317 317 317 317 316 315 315 313 312 311 311 310 308 307 305 303 301 297 292 290 289 289 289 289 288 288 287 287 287 287 286 286 286 286 285 285 285 284 283 283 283 283 283 283 283 283 283 283 283 283 283 283 283 283 283 283 283 283 283 283 283 283 283 283 283 283 283 283
317 317 318 317 317 317 318 318 318 318 316 316 317 317 316 316 317 316 316 316 315 314 313 313 312 311 310 308 307 305 303 300 296 294 291 289 289 289 289 288 288 288 288 287 287 286 286 286 286 285 285 285 285 284 283 282 282 283 283 283 283 283 283 283 283 283 283 283 283 283 283 283 283 283 283 283 282 282 282 283 283 283 283 283 283
316 316 316 316 316 316 316 316 317 317 315 314 314 315 315 315 315 315 314 313 312 312 312 310 309 308 307 305 302 299 296 293 291 289 289 289 289 289 288 288 288 288 287 287 286 286 285 285 285 285 285 285 284 283 282 282 282 282 283 282 283 283 283 283 283 282 282 282 282 282 282 283 282 282 282 282 281 282 282 282 282 282 282 282 281
316 315 316 316 316 316 315 315 315 315 315 314 314 314 314 314 313 312 311 311 310 309 310 309 306 304 303 300 296 293 291 289 289 289 289 288 289 289 289 288 287 287 287 286 286 286 285 285 285 284 284 284 284 283 282 282 282 282 282 282 282 282 282 282 282 282 282 282 282 282 282 282 281 281 281 281 281 282 282 281 281 281 281 280 280
314 314 314 315 314 314 315 314 313 313 313 313 313 313 313 312 311 310 309 309 308 307 307 305 302 300 298 294 291 289 289 289 288 288 288 288 288 288 288 287 287 287 286 286 286 285 285 285 285 284 283 283 283 282 282 282 282 282 282 282 282 281 281 281 281 281 281 280 280 281 281 280 280 280 280 281 281 281 281 281 280 280 279 279 280
312 313 312 313 313 313 313 314 313 311 311 311 311 310 310 310 309 308 308 307 305 304 302 300 297 295 292 290 289 289 288 288 288 288 288 287 287 288 287 287 287 286 286 286 285 285 285 285 285 284 283 283 282 282 282 282 282 282 282 282 282 281 281 280 280 280 280 279 279 279 279 279 279 280 280 280 280 280 280 280 279 279 278 278 278
310 311 311 311 311 312 312 312 312 311 310 310 310 308 308 308 307 307 306 305 303 300 298 295 293 290 289 289 289 288 288 287 287 287 287 287 287 287 287 286 286 286 285 285 285 285 285 284 284 284 283 283 283 282 282 282 282 282 282 282 281 281 281 280 279 280 279 279 278 278 278 279 279 280 280 280 279 279 279 278 278 278 277 277 278
308 309 309 309 309 309 310 310 309 310 309 308 307 306 306 306 306 305 303 301 298 296 293 292 290 289 289 288 288 288 287 287 287 287 287 287 286 287 286 286 286 285 285 285 285 284 284 284 284 283 283 283 283 282 282 282 282 282 282 282 281 281 280 280 279 279 279 279 279 278 278 278 279 279 279 278 278 278 277 277 277 277 277 277 278
308 308 308 308 308 307 307 307 307 307 307 306 305 304 304 304 304 303 300 296 294 292 291 289 289 288 288 288 288 287 287 286 287 286 286 286 286 286 286 285 285 285 285 284 284 284 284 284 283 282 282 282 282 282 282 282 282 281 281 281 281 281 280 280 280 280 279 279 279 279 278 278 278 278 277 276 277 277 276 276 276 276 276 277 277
307 308 307 307 307 306 305 306 306 305 304 303 303 302 302 302 301 300 298 294 291 290 289 288 288 288 288 288 288 288 287 286 286 286 286 286 286 286 286 285 285 285 284 284 284 284 284 283 283 282 282 282 282 282 282 281 281 281 281 281 281 280 280 280 280 279 279 279 279 278 278 277 277 277 276 275 275 275 274 274 275 275 276 277 277
306 307 307 307 307 305 304 304 305 305 303 302 302 301 300 300 298 296 294 292 290 289 288 288 287 287 287 287 287 287 287 286 285 286 285 285 285 285 285 285 285 284 284 284 283 283 283 283 282 282 281 281 281 281 281 281 281 281 281 281 280 279 279 279 279 278 278 279 278 278 277 277 276 276 275 274 274 274 273 273 274 274 275 276 276
305 306 306 306 306 305 304 304 304 304 303 302 301 301 299 297 295 292 291 290 289 288 288 287 287 286 286 286 286 287 286 286 285 285 285 285 285 285 285 285 285 285 284 284 283 283 282 282 282 281 281 281 281 281 281 281 280 280 280 280 279 278 278 278 278 277 278 278 277 277 276 276 276 275 274 274 274 273 272 272 272 273 274 274 275
303 304 305 305 305 305 304 304 303 303 303 302 300 298 297 295 292 290 289 289 288 287 287 287 286 286 286 286 286 286 286 286 285 285 285 285 285 285 285 285 285 285 284 283 283 283 282 282 282 282 281 281 281 280 280 280 280 280 280 279 278 278 278 277 277 277 277 277 277 277 276 276 275 275 274 274 273 272 272 271 271 272 272 273 273
302 303 303 303 304 304 303 303 302 302 301 301 299 295 293 291 290 289 288 288 287 287 286 286 286 286 285 285 285 284 285 285 285 285 284 284 284 284 284 284 284 284 284 283 283 283 282 282 282 282 281 281 280 280 280 279 279 279 279 279 278 277 277 277 277 277 277 276 277 277 276 275 275 275 274 274 273 272 271 271 271 271 271 272 273
301 301 302 303 302 302 302 301 300 300 299 298 297 293 290 288 288 288 287 287 286 285 285 285 285 285 284 284 283 283 283 284 284 284 284 284 284 284 284 284 284 284 284 284 283 283 282 282 281 281 281 280 280 279 279 279 278 278 278 278 277 277 277 277 277 276 276 276 276 276 275 274 273 273 273 272 271 271 271 271 270 270 271 272 272
299 299 300 301 300 300 299 298 298 298 297 295 294 291 289 287 287 286 286 286 285 284 284 284 284 283 283 283 282 282 283 283 283 284 284 284 284 284 284 284 283 283 283 283 283 282 282 281 281 280 280 279 279 279 279 278 278 278 278 277 277 277 277 276 276 275 275 275 275 274 273 272 271 271 271 271 271 270 270 271 271 270 270 271 272
297 297 298 298 298 297 296 295 295 295 294 293 291 289 288 286 285 285 285 284 284 283 283 283 283 282 282 282 282 282 282 283 283 283 283 283 283 283 283 283 283 283 283 282 282 282 281 281 280 279 279 279 279 278 278 278 278 277 277 277 277 276 276 275 275 274 274 274 273 272 271 270 270 270 270 271 271 270 270 271 271 271 270 270 271
295 296 296 295 295 295 293 292 292 292 291 291 290 289 288 286 285 284 283 283 283 283 282 282 282 281 281 281 281 281 282 282 283 283 282 282 283 283 283 283 283 282 282 282 281 281 280 280 279 279 279 278 278 278 278 278 277 277 277 276 276 275 275 274 274 273 273 272 271 271 270 270 270 270 270 270 270 270 270 271 271 271 271 270 270
294 293 293 293 292 292 291 290 289 288 288 288 288 287 287 286 284 283 283 282 282 281 282 282 281 281 281 280 280 281 282 282 282 282 282 282 282 282 282 282 282 281 281 281 280 280 279 279 278 278 278 278 278 278 277 277 277 277 276 275 275 274 274 273 273 272 271 271 270 270 269 269 269 270 270 270 270 270 270 270 270 271 271 271 270
293 292 292 291 290 290 290 289 288 287 286 286 286 285 285 284 284 284 284 284 283 282 282 281 282 282 281 280 280 280 280 281 283 283 284 284 283 283 282 282 281 281 281 280 280 280 279 278 278 278 278 278 278 277 277 277 276 276 275 274 274 273 273 272 272 271 271 270 270 269 269 269 269 269 269 269 269 269 269 269 269 269 270 269 269
291 291 290 289 289 288 287 287 287 286 285 285 285 285 285 284 284 284 284 285 285 285 284 284 284 284 283 283 283 281 281 283 284 284 285 285 284 284 283 283 282 281 281 280 280 279 278 278 278 277 277 277 277 277 276 276 275 275 274 273 273 272 272 272 271 271 271 270 270 269 269 269 268 268 268 269 269 269 268 268 268 268 268 267 267
289 289 288 287 287 286 285 285 285 285 284 283 283 283 283 283 283 283 284 284 284 284 285 285 285 285 284 285 285 286 286 287 285 284 284 284 284 284 283 283 282 281 280 279 279 278 278 277 277 277 277 277 276 276 276 275 274 274 273 273 272 272 272 271 271 271 270 270 270 269 268 268 268 268 267 268 268 268 268 268 267 267 266 266 266
288 286 286 286 286 285 285 284 284 283 283 283 282 282 282 282 282 282 283 282 282 283 283 283 284 284 284 285 285 285 286 286 285 284 284 284 283 283 282 282 281 280 279 278 278 277 277 277 277 276 276 276 276 276 275 274 273 273 272 272 272 271 271 271 270 270 270 270 270 269 268 267 267 267 266 266 267 267 267 267 266 266 265 264 266
288 286 285 285 285 284 284 283 283 282 282 281 282 281 281 281 281 281 281 282 282 282 282 282 283 283 284 284 284 284 285 284 284 284 284 283 283 282 282 281 280 279 278 277 277 277 277 277 277 276 276 276 275 275 274 273 273 273 272 272 271 271 270 270 270 270 270 270 269 268 267 266 266 266 266 266 266 266 266 266 265 264 264 264 265
288 287 286 285 284 283 283 282 282 281 281 281 281 281 281 280 280 280 281 281 281 282 282 282 283 283 283 283 284 284 284 284 284 284 283 283 282 281 280 280 279 278 276 276 276 276 276 276 276 276 276 275 275 274 273 273 273 272 272 271 271 270 270 270 270 270 269 269 269 267 266 266 266 265 266 266 265 265 265 265 264 263 263 263 264
287 287 286 285 284 283 282 281 281 281 280 280 280 280 280 281 281 280 280 280 280 281 281 281 282 282 282 282 283 283 283 283 283 283 282 281 281 280 279 278 278 277 276 276 276 276 276 276 276 276 275 275 274 273 273 273 272 272 272 271 271 270 270 270 269 269 269 268 268 267 266 266 265 265 265 265 265 265 265 264 264 263 262 262 263
286 285 285 285 284 283 282 281 281 280 280 280 280 280 280 280 281 280 280 281 280 280 281 281 281 281 282 282 282 282 282 282 281 281 281 280 280 279 278 277 277 276 276 276 276 276 276 276 276 275 275 274 273 273 273 272 272 272 271 271 270 270 269 269 269 269 268 268 267 267 266 266 265 265 265 265 265 264 264 263 263 262 261 261 262
285 284 284 283 283 282 282 281 281 281 281 280 280 280 280 280 280 281 281 281 281 281 281 281 281 281 280 280 281 281 280 280 280 280 280 280 279 279 278 277 276 276 275 275 275 275 275 275 275 275 274 274 273 273 272 272 271 271 271 270 270 269 269 269 268 268 268 267 267 266 266 266 265 265 265 265 265 264 263 262 262 261 261 261 262
284 283 283 282 282 281 281 281 281 280 280 280 280 280 280 280 280 280 281 281 281 281 280 280 280 280 279 279 279 279 279 280 280 280 279 279 279 279 278 277 276 275 275 275 275 275 275 275 275 274 273 273 273 272 272 271 271 271 271 270 270 269 268 268 268 268 268 267 267 266 266 266 265 264 264 265 265 264 263 262 261 261 261 261 261
283 282 281 281 281 280 280 280 280 279 279 279 279 279 279 279 280 280 280 281 281 280 280 280 279 279 279 279 279 279 279 280 280 279 279 278 278 278 277 276 275 275 276 276 276 276 275 275 274 273 273 273 272 272 272 271 271 271 270 270 269 269 268 268 267 267 268 267 267 266 266 265 265 264 264 264 264 264 263 262 260 260 261 261 261
282 281 280 280 280 279 279 279 279 279 279 279 279 279 279 279 279 279 280 280 280 280 280 279 279 279 279 279 279 278 279 279 279 278 278 277 277 277 276 276 275 276 276 276 276 276 275 275 274 273 273 272 272 272 271 271 271 270 270 270 269 269 268 268 268 268 268 267 267 266 266 265 265 264 264 264 264 264 263 262 261 260 260 260 260
281 280 280 279 278 278 278 278 278 278 278 278 278 278 278 278 279 279 279 279 279 279 279 279 279 279 279 279 279 279 279 278 278 278 278 277 277 276 276 275 275 275 276 276 275 275 275 274 273 272 272 272 272 271 271 271 270 270 269 269 269 269 268 268 268 268 268 268 267 267 266 265 265 264 264 264 264 264 263 262 261 260 260 260 260
280 279 278 278 277 277 277 277 277 277 277 277 277 277 278 278 278 278 278 279 279 279 279 279 279 279 278 279 279 279 279 278 278 278 278 277 276 276 275 275 274 275 276 276 276 275 274 274 273 272 272 272 271 271 270 270 270 270 269 269 269 269 269 268 268 268 268 268 268 268 267 266 265 265 264 264 264 264 263 262 262 261 260 260 259
279 278 278 277 277 276 276 276 276 276 276 277 277 277 277 277 277 277 278 278 278 278 278 278 278 278 277 278 278 278 278 278 278 277 277 277 276 275 275 274 274 275 277 277 277 276 274 273 273 272 272 272 271 271 270 270 270 270 269 269 269 269 269 269 269 269 269 269 268 268 267 267 266 265 265 264 264 264 263 263 262 261 260 259 259
278 277 277 276 276 276 276 276 276 276 275 276 276 276 276 276 276 277 277 277 277 277 277 277 277 277 277 277 277 277 277 277 277 276 276 276 275 275 275 275 275 275 276 277 276 275 274 273 273 272 272 272 271 271 271 270 270 270 269 270 269 270 270 269 269 269 269 269 269 268 268 267 266 265 265 264 264 264 263 263 262 261 260 259 259
277 276 276 275 275 275 275 275 275 275 275 275 275 275 275 275 275 276 276 276 276 276 276 276 276 276 276 275 275 276 276 276 276 276 275 275 275 275 275 275 276 276 276 276 275 274 273 272 272 272 271 271 271 270 270 270 269 269 269 270 270 270 270 270 269 269 269 269 268 268 268 267 266 265 265 265 264 263 263 263 262 260 260 259 259
277 276 275 275 274 274 274 274 274 274 274 274 274 274 274 274 274 275 275 275 275 275 275 275 275 275 275 274 274 274 275 275 275 275 275 275 275 275 275 276 276 276 277 276 275 274 272 271 271 271 271 271 271 270 270 269 269 269 269 269 270 270 270 269 268 268 268 268 268 268 268 267 266 266 265 264 264 263 263 263 261 260 259 259 259
276 275 275 274 274 273 273 273 273 273 273 273 273 273 274 274 274 274 274 274 274 274 274 274 274 274 274 273 273 273 273 273 274 274 274 274 274 274 275 275 276 277 277 276 275 273 272 271 271 271 271 271 271 270 269 269 269 269 269 269 269 269 269 268 268 268 268 268 268 267 267 267 267 266 265 264 264 263 263 262 261 260 259 259 259
275 275 274 273 273 272 272 272 272 272 272 273 273 273 273 273 273 273 273 273 274 274 274 274 274 273 273 273 272 272 272 272 273 273 273 273 274 274 275 276 276 277 277 276 274 272 271 271 271 271 271 271 270 270 269 269 269 269 269 269 269 269 268 268 268 268 268 267 267 267 267 267 267 266 265 264 263 263 263 262 261 260 259 259 258
274 273 273 273 272 272 271 272 272 272 272 272 272 272 272 272 273 273 273 273 273 273 273 273 273 273 272 272 272 272 272 272 273 273 273 274 274 274 275 275 275 276 276 275 274 272 271 271 271 271 270 270 270 269 269 269 269 269 269 268 268 268 268 267 267 267 267 267 266 266 266 266 266 265 264 264 264 263 263 262 261 260 259 258 258
272 272 272 272 271 271 271 271 271 271 271 271 271 272 272 272 272 272 272 272 272 272 272 272 272 272 272 272 272 271 271 272 272 272 273 273 273 273 273 273 273 274 275 275 274 273 272 271 270 270 270 270 270 269 269 269 268 268 268 268 268 267 267 267 267 267 266 266 266 265 265 266 265 265 264 263 263 263 263 262 261 259 258 258 258
271 271 271 271 270 270 270 270 270 270 270 271 271 271 271 271 271 271 271 271 271 271 271 271 271 271 271 271 271 271 271 271 271 272 272 272 272 271 271 272 272 273 273 273 273 273 271 270 270 270 270 269 269 269 269 268 268 268 267 267 267 267 267 267 267 266 266 266 265 265 265 265 265 264 264 263 263 263 262 261 260 259 258 258 258
271 270 270 270 269 269 269 269 269 269 269 269 270 270 270 270 270 270 271 271 271 271 271 271 271 271 271 271 271 271 271 271 271 271 271 271 271 270 271 271 272 272 272 273 272 271 270 270 269 269 269 269 269 269 269 268 268 268 267 267 266 266 267 266 266 266 266 265 265 264 265 265 264 264 263 262 262 262 262 261 259 258 257 257 257
Wind_Speed
23 25 26 26 27 28 28 28 28 28 27 27 26 25 25 24 24 24 24 24 23 22 22 22 21 21 22 23 23 23 23 23 23 23 22 23 22 22 22 21 19 16 15 13 13 13 13 14 14 13 11 10 8 7 6 5 4 4 3 3 3 3 3 1 4 10 14 15 17 22 26 29 30 30 32 35 35 35 35 33 32 32 31 31 33
21 23 24 25 25 25 25 25 25 25 25 24 25 24 23 23 24 23 23 22 22 22 23 23 22 23 24 24 24 24 25 24 23 22 20 21 22 22 22 20 17 16 16 17 17 16 16 16 16 14 12 10 9 8 6 5 4 4 4 3 3 3 4 4 3 6 11 17 21 24 26 29 30 31 33 34 36 37 36 34 33 33 31 29 32
18 20 21 22 23 23 23 23 23 23 23 23 24 23 23 23 23 23 23 22 22 22 22 23 24 26 26 26 26 27 25 23 22 21 19 20 22 22 20 18 17 18 20 21 20 18 18 17 16 14 12 10 10 8 6 5 4 3 4 3 3 3 4 4 4 4 8 15 20 23 26 28 29 30 31 33 36 38 37 36 34 32 30 30 33
14 16 18 19 20 21 21 21 22 22 22 23 23 23 23 23 22 22 22 21 21 21 22 25 29 30 29 28 28 26 23 22 22 21 20 20 21 21 20 19 20 21 22 22 20 19 18 16 15 13 11 10 9 8 6 5 4 3 3 3 4 4 4 5 5 5 7 11 15 19 23 26 28 29 31 34 38 39 39 39 38 36 34 31 32
13 14 15 17 18 18 19 20 21 22 22 22 21 22 22 21 21 22 22 22 22 24 27 31 33 31 29 29 27 23 21 21 20 19 19 19 20 21 22 23 24 24 23 21 20 18 16 15 14 13 11 9 9 8 6 5 4 4 4 4 4 4 4 6 6 7 7 10 14 18 21 25 27 28 30 34 38 41 40 37 35 34 31 28 27
14 14 15 16 17 17 18 20 21 21 21 21 22 22 21 21 22 23 23 23 25 28 31 32 30 28 27 25 23 21 20 20 19 19 20 21 23 25 26 26 25 24 23 21 19 17 15 14 13 12 10 8 8 8 6 5 5 4 5 5 5 5 6 7 7 7 7 9 12 16 19 23 26 27 30 31 31 33 38 40 40 35 26 23 25
15 16 17 17 18 18 19 20 21 20 20 21 22 22 21 22 24 25 25 27 29 30 29 27 24 23 21 20 19 19 20 20 20 22 24 26 27 28 28 27 26 24 22 20 18 16 14 13 12 10 8 7 7 7 6 6 5 5 6 6 6 7 7 7 8 8 9 10 11 13 17 21 23 24 27 27 23 22 27 35 42 42 34 28 26
17 18 18 18 19 20 20 20 21 20 20 22 23 22 23 25 26 27 27 28 29 28 26 24 22 20 19 18 18 18 20 22 24 27 28 29 30 30 29 27 26 24 22 19 17 15 13 12 10 9 7 7 6 6 5 5 6 7 6 6 7 8 8 8 8 9 9 10 11 12 14 18 21 22 22 23 22 23 24 25 31 37 37 34 29
19 19 19 19 20 21 21 21 21 20 22 24 23 23 25 27 28 28 28 27 26 25 23 21 20 19 19 18 19 21 23 26 28 30 31 31 30 29 28 26 25 23 22 19 16 14 13 11 10 8 7 7 6 5 5 7 8 8 8 8 9 9 9 8 9 8 9 10 11 12 13 15 18 21 22 21 21 23 25 26 27 30 33 35 31
19 20 20 20 21 21 21 22 21 20 23 26 26 27 29 29 29 28 27 26 24 23 21 19 19 19 20 21 23 25 27 29 30 30 30 30 30 28 27 25 23 21 20 19 17 14 13 11 10 9 7 6 6 6 7 8 9 9 9 9 9 9 8 7 8 7 8 10 11 13 14 14 16 19 21 21 20 21 24 25 27 30 30 31 31
20 20 20 20 21 21 21 23 22 22 23 26 27 29 30 29 29 28 27 25 24 22 20 19 20 22 24 27 28 29 30 30 30 30 29 28 28 27 26 23 21 19 18 17 17 15 13 12 10 9 8 8 8 7 8 8 9 9 9 9 8 8 7 6 6 6 7 8 10 12 13 14 16 17 18 21 21 21 23 24 25 28 27 24 26
20 21 21 21 22 22 22 23 25 26 26 27 28 28 27 27 27 26 26 25 24 23 21 21 24 26 28 30 31 31 31 30 29 29 28 27 26 24 23 22 21 19 17 16 16 15 14 13 12 10 9 9 8 7 8 9 9 9 8 8 8 6 5 4 4 5 6 7 9 11 12 14 15 15 17 21 23 23 23 23 22 23 25 24 22
22 22 23 23 23 24 24 25 26 27 29 29 29 29 28 27 26 25 25 24 24 24 24 26 29 30 32 33 33 32 31 30 29 28 27 26 24 23 22 21 20 19 18 16 15 15 14 13 13 12 9 8 7 7 8 9 8 8 8 8 7 6 5 4 4 4 5 6 8 10 11 13 14 15 17 19 22 24 23 23 24 23 24 25 24
22 23 24 25 25 25 26 27 27 28 29 29 29 29 28 28 27 25 24 24 25 27 29 31 32 33 34 34 34 33 32 30 29 28 26 25 23 22 21 20 20 19 17 16 15 15 14 13 13 12 9 7 7 7 8 7 7 7 7 7 6 6 5 6 6 6 6 6 7 9 10 12 13 16 18 18 18 20 21 22 25 25 27 28 28
22 23 24 25 27 28 28 28 28 28 29 28 29 29 28 28 27 25 24 25 28 31 32 34 35 35 35 35 35 34 32 30 29 28 27 25 24 22 21 21 20 19 18 16 15 15 13 12 12 11 10 8 7 6 6 6 6 6 6 6 6 6 6 7 8 7 8 8 8 9 10 11 13 14 16 17 16 17 18 19 21 23 26 30 30
24 24 25 26 27 29 30 30 29 29 29 29 29 29 28 28 27 26 27 29 32 33 34 35 36 36 36 36 36 34 31 30 29 28 27 25 24 23 22 21 20 19 18 17 16 14 13 12 11 11 10 9 7 5 5 5 5 5 5 5 5 6 6 7 7 7 8 8 8 8 8 9 11 12 13 15 15 16 16 17 17 19 22 25 27
27 27 27 27 28 28 29 30 30 30 30 30 30 30 30 29 29 29 31 33 34 35 35 36 36 37 37 36 36 35 32 30 29 27 26 25 24 23 22 21 21 20 19 17 16 15 13 12 11 10 10 9 7 5 5 5 4 4 4 4 5 6 7 7 7 7 8 8 7 6 5 6 9 10 10 12 14 15 16 17 18 19 20 20 21
29 29 29 29 29 29 29 29 29 29 30 31 32 32 31 31 30 32 34 35 36 36 36 36 35 35 36 35 35 35 33 30 28 27 26 25 23 23 22 22 21 20 19 18 16 15 14 12 10 10 9 8 7 5 4 3 2 3 4 4 5 7 8 8 8 8 8 7 7 5 4 5 7 8 9 10 12 13 13 15 18 19 19 18 18
31 31 30 28 28 29 30 29 30 31 32 32 32 32 31 31 32 33 35 36 36 36 36 36 35 34 34 33 33 34 33 31 29 27 26 25 23 22 22 22 22 21 20 19 17 15 13 12 10 9 8 8 6 4 3 3 1 2 3 4 6 8 8 9 10 10 8 7 7 7 6 6 7 9 12 12 13 14 12 12 15 16 17 19 20
30 30 29 28 28 29 29 30 31 31 32 31 30 30 30 32 33 35 35 36 36 36 35 36 35 33 32 32 32 32 33 32 29 27 26 25 23 22 22 22 22 22 20 19 18 16 14 12 10 9 8 8 7 4 2 2 1 2 3 5 6 7 7 8 8 8 8 8 8 8 8 9 10 13 15 16 16 16 14 12 12 14 15 18 20
28 29 28 28 29 29 30 30 30 30 30 30 30 30 32 34 36 37 37 37 37 36 35 35 34 33 31 31 31 31 31 31 30 28 26 25 24 23 22 21 20 21 20 19 18 17 15 13 12 11 9 8 7 5 3 1 0 1 3 4 5 5 6 6 6 7 8 9 10 10 11 12 13 15 17 18 19 18 16 13 11 12 14 16 18
28 28 28 28 29 30 30 31 30 30 30 30 31 32 33 35 37 38 38 38 38 37 36 34 34 32 30 29 30 30 30 30 30 29 26 25 25 23 21 20 19 19 20 20 18 17 15 14 12 11 10 9 8 6 4 2 1 0 2 3 3 4 5 5 5 7 9 10 10 12 13 14 16 17 18 19 20 19 18 15 13 12 12 12 14
26 27 28 29 29 30 31 31 31 31 31 32 33 34 35 36 37 38 39 39 38 36 35 34 33 32 30 28 28 28 28 28 28 28 27 26 25 23 21 20 19 18 18 18 19 17 16 15 13 12 11 10 8 7 5 4 3 1 1 1 2 3 4 5 6 8 9 10 11 13 14 16 17 19 20 21 21 20 19 18 16 14 13 11 10
25 27 28 29 29 30 31 31 32 32 32 33 35 36 37 38 38 38 39 39 38 36 35 34 34 32 31 29 27 27 27 27 27 28 27 26 25 24 22 21 20 19 17 17 17 17 16 15 14 12 11 11 9 7 6 5 4 2 1 1 2 3 4 5 7 8 9 11 12 13 14 16 17 19 20 21 21 21 22 21 19 17 16 15 12
26 27 28 29 30 30 30 30 31 32 33 35 37 38 39 39 38 38 38 38 37 35 34 34 33 32 32 31 29 28 28 28 27 27 27 26 26 25 24 23 21 20 19 18 17 16 15 14 14 13 12 11 10 9 7 6 5 4 2 2 3 4 5 5 6 8 10 10 11 12 13 15 16 17 19 20 21 23 24 25 24 22 22 21 17
26 27 29 29 30 30 30 31 32 32 34 36 38 40 41 41 40 38 38 37 36 35 35 33 32 31 31 32 32 31 30 30 29 28 27 26 26 25 25 24 23 21 20 19 18 17 16 15 14 14 13 11 10 9 8 7 5 4 4 3 4 4 4 5 6 8 9 9 10 11 12 14 15 16 18 20 22 24 26 27 28 28 28 28 21
27 28 28 29 29 31 32 32 33 34 35 37 37 39 40 41 40 39 39 37 35 34 35 34 33 32 31 32 33 33 32 32 31 30 30 29 28 27 26 26 25 24 22 22 21 19 18 17 16 15 13 12 11 10 9 8 6 5 5 4 4 4 4 5 6 7 8 8 8 9 11 13 15 16 18 20 22 24 25 27 29 30 31 31 25
26 27 28 29 30 31 33 34 34 35 36 38 39 39 40 40 41 42 44 43 41 39 38 38 38 38 36 35 35 34 34 35 35 34 34 33 31 30 30 29 28 27 25 24 23 21 19 19 18 16 15 13 12 11 10 9 8 7 6 5 4 3 3 4 5 6 6 7 8 9 11 13 15 16 18 20 21 23 24 25 27 28 30 28 23
25 26 27 28 30 31 32 33 34 35 36 37 38 38 40 41 41 41 43 45 46 45 44 44 44 43 42 41 40 39 38 38 38 36 34 34 32 32 31 31 29 28 26 25 24 22 21 20 19 18 17 15 14 13 11 10 9 8 7 6 4 3 2 2 3 4 6 7 8 9 11 13 15 16 18 19 20 22 23 24 25 27 28 25 18
24 25 26 28 29 30 31 31 33 34 35 35 35 34 35 36 37 37 38 39 40 40 41 43 44 43 42 42 42 41 39 38 37 35 34 33 32 31 30 30 28 27 27 26 24 23 23 22 21 19 18 16 15 14 13 12 10 9 8 7 5 4 3 3 3 4 6 7 8 10 12 13 14 16 18 19 20 21 22 23 24 25 26 23 18
24 25 26 28 29 30 31 31 32 32 33 34 33 32 31 31 32 33 33 34 34 34 34 35 37 39 40 40 40 39 37 35 35 35 33 32 32 31 30 29 28 27 28 28 26 25 24 24 23 21 19 17 16 15 14 13 12 10 9 7 6 4 3 3 4 5 6 7 8 10 11 12 13 15 17 18 20 20 21 22 23 24 24 20 17
25 25 26 27 28 30 31 31 31 31 31 31 32 31 29 27 27 28 29 30 31 32 32 32 32 34 36 38 38 37 35 31 31 32 32 32 33 32 30 29 29 28 28 28 27 26 26 24 23 22 21 19 18 17 15 14 13 11 10 8 6 4 4 4 5 5 6 7 8 9 10 11 12 13 15 17 18 19 21 22 23 24 24 20 16
25 25 26 26 27 28 29 29 30 31 30 31 31 31 30 29 27 26 26 26 28 30 31 31 31 31 32 35 35 36 34 30 28 30 33 34 33 32 30 29 29 28 29 30 29 27 26 25 23 22 21 20 18 17 16 15 14 12 10 9 7 6 5 4 5 5 6 7 8 9 10 10 11 12 13 15 16 17 19 21 22 23 23 19 16
24 23 24 25 26 28 29 29 29 29 29 29 30 30 31 30 29 27 26 25 26 28 30 31 30 29 30 32 33 34 33 29 28 30 33 33 33 31 29 27 26 26 28 30 30 28 27 26 24 23 21 20 19 18 17 15 14 13 11 9 8 7 6 5 5 5 5 6 7 8 9 10 11 12 13 14 15 16 17 19 20 22 21 17 15
23 22 22 24 26 27 28 28 28 28 28 29 30 30 31 30 29 29 30 30 29 30 30 31 31 30 30 31 32 34 32 29 28 30 31 32 30 28 27 27 27 28 29 31 31 29 28 27 25 23 22 21 19 19 17 16 15 13 11 10 9 8 7 6 5 5 5 6 6 7 9 9 10 11 12 14 14 14 16 17 17 19 19 16 14
23 23 23 23 24 26 26 27 28 29 30 31 31 31 31 30 29 30 30 30 29 29 29 29 28 27 26 28 30 31 30 27 27 29 30 30 29 29 31 33 34 34 34 34 33 31 28 26 24 23 22 21 20 19 18 16 15 13 12 11 10 9 8 7 6 5 5 6 6 7 8 9 10 10 11 12 13 13 14 15 15 17 18 16 14
23 23 23 23 23 24 25 26 28 29 29 30 30 30 30 30 29 28 28 28 29 27 26 26 26 25 25 26 28 28 27 25 25 26 27 27 27 30 34 37 36 37 38 37 35 32 30 27 25 24 23 22 21 20 19 18 16 14 13 12 11 10 9 8 7 6 6 6 6 7 8 9 9 10 10 11 12 12 12 13 14 15 17 17 15
22 22 22 22 22 23 24 24 25 26 26 27 28 29 29 29 28 28 28 29 29 27 26 27 29 30 31 31 30 29 27 25 24 25 26 27 29 32 36 37 37 38 39 37 34 32 30 28 27 26 24 23 22 21 20 19 17 16 14 13 12 11 10 9 8 7 6 6 7 8 9 9 9 9 10 10 11 11 11 12 13 15 16 17 16
21 22 22 21 21 22 23 24 24 25 26 27 27 27 27 27 27 28 28 27 26 26 27 28 30 32 33 33 33 32 31 30 31 32 32 32 34 36 38 39 39 39 37 35 32 31 30 28 27 26 25 24 23 23 21 20 18 17 16 15 14 13 11 10 9 8 7 7 7 8 9 9 9 9 10 10 10 10 11 11 13 14 15 16 16
20 21 21 21 21 22 22 23 24 25 27 27 27 26 27 27 28 28 27 25 25 27 27 29 31 33 34 35 37 38 38 37 38 37 37 37 38 39 40 41 42 41 38 35 32 31 29 28 27 27 26 25 24 24 22 20 19 18 17 16 15 13 11 10 9 8 7 8 8 8 9 9 10 10 10 9 9 10 10 11 13 13 14 14 15
17 19 20 20 21 21 21 22 24 26 26 26 27 27 28 29 28 27 26 26 27 27 27 29 30 30 31 35 39 41 41 39 38 38 39 39 40 41 42 42 42 42 41 38 34 32 31 30 28 27 26 26 25 24 22 21 20 19 18 17 16 14 12 11 10 8 8 8 8 8 8 9 10 11 10 9 9 9 10 11 12 13 14 14 14
15 17 18 19 20 20 21 22 23 24 24 25 26 27 27 27 26 26 27 27 27 27 27 29 29 27 28 31 35 38 38 36 34 35 37 38 39 40 41 42 42 42 41 39 36 34 32 31 29 28 27 27 26 25 24 23 22 21 19 18 17 15 13 11 10 9 9 9 9 8 8 9 11 11 11 10 9 9 10 11 12 12 13 14 14
13 15 16 17 19 20 22 23 23 23 24 24 25 26 25 25 26 26 27 27 27 27 27 28 27 27 29 30 32 36 37 35 32 33 34 36 37 38 40 41 42 42 41 39 36 34 32 31 29 28 27 27 26 24 24 23 22 21 20 19 17 16 14 12 11 10 10 10 9 9 9 10 11 12 12 10 10 10 10 11 11 12 13 14 14
12 13 14 16 17 18 20 21 22 23 24 24 24 25 24 25 25 25 26 27 27 27 28 28 26 26 28 29 31 34 37 37 35 34 35 35 37 38 40 41 42 42 41 39 36 33 32 30 29 28 27 27 26 25 24 23 22 21 20 19 18 17 15 13 12 11 11 11 10 9 10 10 11 13 12 11 10 11 10 10 11 12 13 14 14
10 12 13 15 16 17 19 20 21 22 22 22 23 24 23 24 25 25 26 26 26 26 27 28 26 27 29 30 32 35 38 38 37 37 37 37 38 39 40 41 41 41 40 38 35 33 32 31 30 30 29 28 27 27 26 25 23 22 21 20 19 17 15 13 12 13 13 12 11 10 11 11 12 13 13 12 11 11 11 10 11 12 14 13 13
10 11 13 14 16 17 18 19 20 20 20 21 21 22 22 23 25 25 26 26 26 26 26 26 26 27 29 30 31 34 36 36 36 36 37 38 39 40 41 41 41 41 39 36 35 34 34 34 33 31 30 29 28 27 26 25 24 23 22 21 20 18 15 14 14 14 14 13 12 12 12 12 13 14 14 14 13 12 12 11 12 12 13 13 14
9 11 13 14 15 16 17 17 18 19 19 20 21 21 22 22 23 24 26 26 27 27 27 27 26 28 29 30 31 33 34 34 35 36 37 38 40 41 42 42 43 42 39 37 36 36 35 35 33 31 30 29 28 27 26 25 25 24 23 22 20 18 17 16 16 16 15 14 14 13 13 13 14 15 15 15 14 13 13 13 12 12 12 13 14
8 10 12 13 14 16 16 17 17 18 19 20 20 21 22 22 22 23 24 25 26 27 28 28 28 29 30 31 32 33 34 36 37 38 40 41 42 42 43 44 45 44 42 39 38 37 36 35 34 32 30 29 28 27 27 26 25 25 24 23 21 19 18 17 17 17 16 15 15 15 15 15 15 16 17 16 15 15 14 13 12 12 13 14 14
8 9 11 13 14 15 16 16 17 17 18 18 19 20 21 21 22 23 23 24 25 26 27 28 29 29 30 31 32 33 34 35 37 38 40 40 40 41 42 43 44 44 42 40 38 37 36 35 33 32 30 29 28 27 27 26 25 25 25 24 22 20 19 19 18 17 17 16 16 16 16 16 16 17 18 18 16 15 14 14 13 13 13 14 15
7 9 10 12 13 14 15 16 17 17 18 18 19 20 20 21 22 23 23 24 25 26 26 27 28 29 30 31 32 33 34 36 37 38 39 39 39 39 40 41 43 43 42 40 38 36 35 34 33 32 30 29 28 27 27 26 25 25 25 23 22 21 20 20 19 18 18 17 17 17 17 18 18 18 19 18 17 15 15 14 14 14 15 16 16
8 9 10 12 13 14 15 16 17 18 18 19 19 20 21 21 23 23 24 24 25 26 26 26 27 28 30 31 32 33 34 36 36 36 37 37 37 38 40 41 42 42 41 39 37 36 35 34 33 32 30 28 27 27 26 26 25 25 24 23 22 22 21 21 20 19 19 18 18 18 18 19 19 19 19 18 17 16 16 15 15 16 17 17 16
Wind_Direction
219 220 221 220 222 222 222 223 223 223 224 224 224 226 227 228 227 228 228 226 224 223 221 216 214 211 203 196 192 186 181 176 174 172 169 167 169 170 172 174 174 174 180 182 179 178 175 168 160 154 152 153 147 142 140 128 114 103 91 76 62 36 3 340 267 289 312 329 335 341 348 351 354 356 353 351 351 350 350 351 351 351 350 348 345
215 216 216 216 218 219 219 220 219 220 220 220 221 222 223 224 224 223 223 222 221 220 216 209 206 201 191 183 181 178 172 168 168 171 171 171 172 173 175 179 180 179 176 169 162 161 163 159 150 144 147 149 143 138 134 125 118 109 93 78 58 20 352 341 309 289 307 329 340 346 352 354 354 354 354 350 347 347 347 348 348 347 348 347 344
209 211 212 213 213 214 215 215 215 215 215 216 216 216 219 220 219 218 218 216 213 211 210 204 194 186 180 178 176 172 169 170 173 177 177 177 176 176 179 185 186 176 166 160 157 157 158 152 145 143 148 148 141 137 133 129 120 101 84 67 42 14 2 358 350 315 311 328 342 346 349 352 351 351 352 348 345 345 345 344 344 344 345 345 343
201 204 205 207 208 208 208 208 208 209 210 211 211 211 213 213 211 212 210 206 202 201 200 191 182 177 175 175 173 172 172 172 174 175 177 182 184 182 181 180 174 166 161 157 155 155 154 150 145 146 151 150 141 135 133 127 113 92 73 51 36 23 20 23 15 358 334 328 335 341 345 347 347 350 350 346 344 344 343 341 341 342 343 343 342
193 196 195 196 197 198 199 199 201 202 202 204 205 205 205 204 203 202 197 194 194 192 185 178 175 175 174 174 174 175 174 173 175 176 179 184 182 174 169 165 161 158 157 154 151 152 154 151 148 149 155 151 139 135 133 121 110 90 63 47 47 43 35 30 20 9 352 329 327 337 344 344 345 350 351 347 344 343 341 338 336 338 341 341 339
187 187 185 184 185 188 191 192 193 195 196 198 199 197 196 196 195 192 190 189 186 180 174 171 174 174 173 173 174 175 175 178 184 182 177 174 168 163 160 158 156 154 152 150 150 153 154 152 150 152 155 149 140 135 127 115 105 83 68 60 55 50 40 30 19 10 358 339 330 333 340 344 344 345 348 348 344 340 338 335 333 334 335 336 334
182 181 181 181 182 184 186 186 187 189 192 194 191 189 189 190 189 186 186 182 175 171 169 168 171 172 171 172 174 177 180 182 181 175 168 165 163 160 158 155 153 151 150 149 151 153 154 152 150 150 148 142 133 126 120 111 93 75 70 64 53 44 36 25 15 8 359 347 338 333 335 339 339 338 343 347 343 338 339 335 331 329 329 331 333
179 178 178 180 181 180 181 183 184 186 189 187 184 183 185 184 182 178 175 172 169 169 170 169 169 170 173 176 180 183 182 176 171 166 163 163 162 159 157 155 152 150 149 151 152 153 151 148 146 144 137 127 120 117 113 100 81 73 67 56 47 40 33 22 12 6 358 347 339 334 331 333 335 335 339 346 344 338 339 332 321 321 323 325 329
178 177 178 180 179 177 179 180 179 183 184 180 178 180 179 175 172 169 168 169 169 170 172 174 174 174 177 180 181 179 175 170 166 165 164 162 161 158 156 156 155 154 152 151 150 149 146 143 138 132 125 119 114 108 98 84 73 68 60 50 46 40 32 21 11 3 355 345 337 334 334 332 334 335 335 341 341 332 329 326 318 317 320 321 323
179 177 178 179 177 175 178 176 175 180 180 176 174 174 172 171 170 169 169 172 173 172 174 179 182 183 182 179 175 172 169 167 165 166 164 162 161 159 157 156 157 157 156 151 148 146 142 139 132 127 124 119 112 99 88 79 71 65 58 53 48 41 32 20 9 1 351 343 335 333 334 331 331 332 329 331 332 327 326 326 322 321 323 322 324
182 180 179 179 178 178 178 175 173 178 178 173 172 171 170 170 171 171 171 173 173 174 178 183 184 183 179 173 169 167 166 165 164 165 164 163 162 160 158 157 156 156 156 153 150 147 143 139 134 132 128 118 108 97 89 82 74 69 65 61 56 46 33 16 2 357 348 338 330 327 326 323 325 328 326 325 327 327 327 326 323 322 325 325 323
184 184 181 181 182 179 179 178 175 176 177 174 172 172 172 172 172 172 172 173 173 174 179 183 180 177 173 168 166 164 163 163 164 164 163 163 164 163 161 159 156 155 156 155 152 149 146 143 139 137 131 121 113 101 93 86 76 72 69 67 64 55 44 26 6 358 346 332 324 320 319 319 321 324 326 326 326 326 327 326 322 321 321 320 315
186 186 183 183 183 180 179 181 179 177 177 176 175 174 175 176 176 175 174 174 177 177 178 179 175 171 169 166 163 162 161 162 164 164 164 164 165 165 162 160 158 158 158 157 154 152 150 147 142 138 133 127 119 102 91 86 79 73 69 66 59 51 52 49 32 7 341 328 319 312 315 321 320 321 325 326 326 327 327 324 323 322 319 314 308
187 187 185 183 183 181 180 180 180 178 178 177 177 176 176 176 176 177 178 179 180 177 175 173 170 168 167 164 162 161 161 163 165 165 165 165 166 166 163 161 162 160 158 157 155 153 152 149 145 140 135 126 114 101 94 89 83 76 69 62 53 52 57 46 32 15 357 345 324 315 321 324 319 319 324 328 327 326 324 322 322 321 316 310 307
191 192 190 187 186 185 183 182 181 180 180 179 179 179 179 179 178 179 182 183 180 175 172 170 167 166 166 165 163 161 162 165 167 167 166 166 167 167 166 164 162 158 156 157 155 154 153 150 147 143 135 125 113 105 102 94 87 79 70 60 52 57 55 37 26 16 5 354 334 325 326 323 320 321 325 329 328 322 319 317 318 317 314 313 313
197 197 197 195 193 190 188 187 185 185 184 183 182 182 181 181 181 181 180 178 176 173 170 169 168 166 166 166 164 162 163 167 169 168 168 168 168 169 166 164 161 158 157 156 155 153 153 151 149 144 135 129 124 120 110 98 90 81 70 63 56 57 54 38 25 16 5 351 336 333 328 323 325 324 326 332 330 325 324 323 325 324 319 316 317
198 200 200 200 199 197 194 191 188 187 187 186 185 185 183 181 181 182 179 174 172 171 170 169 169 169 168 168 167 164 163 167 171 170 170 171 171 169 166 163 161 159 157 156 156 156 156 155 151 144 136 131 132 132 116 99 90 79 67 58 50 49 46 37 27 17 6 351 343 350 351 336 328 321 327 338 338 337 338 336 333 328 322 319 318
197 199 199 200 201 200 197 195 193 190 189 188 186 183 182 181 181 182 179 174 171 171 171 169 169 170 170 171 171 168 165 167 172 172 172 174 174 171 168 165 162 160 158 157 159 159 159 158 152 144 137 134 135 135 120 102 80 65 55 40 38 35 26 22 22 17 7 354 351 7 15 345 329 333 348 352 347 350 350 336 326 323 319 317 316
199 198 199 199 199 198 196 196 195 191 187 185 184 183 182 182 181 180 178 175 172 171 171 170 169 171 172 173 173 171 168 168 173 175 174 174 176 175 173 169 164 162 162 162 162 162 162 159 152 145 141 140 144 144 128 113 68 39 31 22 27 26 14 9 9 4 1 2 5 12 15 2 357 5 9 4 358 2 357 334 322 320 317 314 314
200 199 199 198 198 198 196 195 194 191 188 187 187 187 186 182 179 177 175 174 172 171 172 172 170 171 173 173 173 174 172 170 173 177 176 176 178 178 177 175 171 167 167 167 165 164 165 163 156 152 151 150 152 158 155 129 70 8 13 20 19 15 12 9 359 350 355 6 12 13 13 14 18 16 10 6 5 6 357 339 326 319 315 312 311
200 199 198 198 198 199 198 198 197 195 195 194 191 189 187 183 179 176 175 174 173 171 172 172 171 171 173 174 174 175 175 174 175 177 178 178 180 182 181 181 178 173 169 169 169 169 169 168 164 160 160 161 161 169 183 176 95 346 4 22 16 3 5 3 346 342 356 6 10 11 10 14 18 17 11 6 4 1 355 347 337 322 314 308 305
200 198 197 198 199 200 200 201 200 199 198 197 192 187 184 182 180 178 176 175 173 172 172 172 171 169 171 175 176 175 176 177 176 178 180 181 182 184 184 182 181 178 173 171 172 174 173 171 169 166 165 168 170 176 192 210 210 298 2 14 9 358 354 345 336 346 359 4 6 7 8 10 12 11 7 4 360 357 354 351 345 336 327 314 299
200 198 198 199 200 202 202 201 201 200 198 196 192 186 182 181 181 180 178 175 173 171 171 171 170 169 170 173 176 176 176 177 177 178 180 182 183 184 184 182 181 182 180 177 176 176 176 175 173 170 170 172 177 183 193 206 212 214 344 350 349 343 332 329 338 350 358 2 4 7 9 10 7 4 1 358 355 354 355 352 348 345 344 337 314
198 198 199 200 200 202 202 200 200 199 197 194 190 185 182 181 180 180 179 176 173 171 171 172 170 169 170 173 175 176 176 177 178 180 181 183 183 183 185 185 182 181 183 182 179 178 179 178 175 172 173 176 182 191 197 199 208 220 242 282 313 318 316 325 341 351 358 2 6 10 12 9 4 359 356 354 353 354 355 355 353 350 346 344 338
196 197 199 200 200 200 199 199 199 198 196 193 189 185 182 181 180 180 180 178 175 173 172 173 173 172 173 175 176 178 178 178 179 181 182 183 183 184 185 186 185 183 183 184 183 181 181 178 175 175 180 184 188 195 202 205 212 227 244 268 290 302 313 328 342 352 359 6 10 11 12 9 4 359 356 356 357 358 357 356 356 356 353 351 351
194 196 197 198 197 197 196 195 196 196 195 194 192 189 186 183 181 181 180 180 179 176 175 176 176 176 177 179 180 180 180 181 182 181 182 183 184 186 186 186 186 185 185 185 184 182 181 179 179 182 187 191 194 199 207 212 220 235 249 264 280 294 314 331 344 355 2 8 12 13 11 7 3 2 1 2 3 3 360 357 356 356 356 355 354
193 193 195 195 195 195 195 193 193 193 193 192 192 191 189 186 184 182 182 181 180 179 179 179 180 181 181 182 183 183 184 185 184 183 184 185 186 187 187 187 187 186 185 186 185 184 183 183 186 192 194 195 198 204 211 217 225 238 245 255 272 288 313 333 346 355 359 4 9 13 12 8 4 4 6 7 8 6 3 1 358 356 357 357 351
195 194 195 195 195 195 195 194 193 192 192 193 193 192 191 190 189 189 189 187 185 184 184 184 186 188 186 184 184 184 187 191 191 190 190 190 191 191 190 190 191 189 188 189 188 186 187 188 191 195 198 199 202 206 211 218 224 231 238 244 253 271 306 334 345 349 352 357 2 7 10 8 5 6 7 9 10 8 5 4 1 357 358 359 349
196 196 196 196 196 195 196 196 195 194 193 194 196 196 195 195 195 196 196 195 194 193 192 192 194 195 192 190 189 188 192 198 199 198 197 197 198 199 197 195 195 192 191 193 191 188 189 192 195 197 199 201 204 206 211 217 219 222 227 234 241 253 281 311 326 335 344 351 356 1 6 6 3 4 6 8 10 10 8 6 4 360 359 357 344
195 197 197 197 197 197 196 197 197 196 195 195 196 199 200 200 201 201 201 200 200 200 199 200 201 200 198 199 199 199 202 206 203 200 201 202 202 203 202 200 197 193 191 194 195 193 192 194 197 201 202 204 206 208 212 215 216 218 220 222 231 244 267 296 313 330 342 348 352 357 1 1 359 1 4 5 7 10 10 7 5 3 0 353 337
195 198 200 200 200 199 198 199 199 199 199 198 197 197 199 203 205 207 207 205 204 205 206 206 207 205 204 204 205 206 209 210 205 202 204 204 202 202 201 199 197 195 194 195 195 196 197 197 199 202 204 206 209 210 211 212 212 215 216 217 225 236 253 286 306 324 338 342 345 352 356 355 356 358 360 1 3 6 8 8 5 2 360 352 333
201 203 204 204 204 203 202 202 200 200 200 199 198 197 196 197 202 208 212 211 209 210 211 212 213 213 211 210 208 207 209 210 208 207 207 205 202 201 200 198 197 197 198 198 199 200 201 201 202 203 204 207 210 209 209 209 209 210 214 216 222 231 244 274 298 316 330 335 339 346 349 348 350 354 356 359 2 4 5 6 4 360 357 350 334
211 211 209 207 206 205 205 204 203 202 201 199 199 198 197 196 197 201 207 212 215 217 218 218 219 218 216 215 214 212 212 212 210 209 207 204 201 199 198 198 197 197 198 200 202 204 204 204 206 207 207 209 210 208 208 208 208 209 212 214 220 230 245 266 288 305 320 328 334 340 341 340 342 347 352 357 1 4 4 3 360 357 355 347 333
217 218 217 213 210 208 208 207 206 205 204 203 202 201 202 202 201 198 197 202 209 216 220 221 223 222 221 220 218 216 216 216 212 207 205 202 200 196 194 194 194 197 203 207 207 207 207 206 207 209 209 209 209 208 209 209 209 211 213 214 220 229 239 255 272 288 305 315 324 331 333 333 336 340 346 353 359 2 2 1 358 355 351 342 329
222 223 224 223 218 214 212 210 209 208 208 207 206 206 207 207 205 203 201 201 203 208 213 215 218 220 221 220 218 217 217 214 209 204 201 199 197 191 188 189 190 195 205 212 213 211 211 210 209 209 209 209 210 210 211 211 212 214 216 218 223 228 232 245 259 270 288 302 312 321 324 326 331 334 339 348 355 358 358 358 355 351 346 338 328
224 226 227 226 224 220 218 216 214 213 212 211 211 211 211 210 210 210 210 209 208 208 208 209 210 213 216 218 217 215 212 207 202 199 198 197 194 190 191 194 194 195 203 212 214 214 214 214 213 211 210 210 211 211 212 213 214 216 219 221 225 230 233 238 247 258 275 289 300 310 315 317 322 327 333 342 349 352 353 351 349 346 344 338 329
228 229 228 228 227 225 223 221 220 218 217 216 215 214 214 214 214 214 214 214 213 210 206 203 200 199 203 209 209 205 203 200 197 197 198 196 194 196 201 203 201 200 206 212 213 213 214 213 212 210 210 211 212 212 212 214 214 217 220 222 225 228 233 237 243 251 264 275 287 298 303 306 312 318 325 334 340 344 347 345 342 339 340 340 334
233 232 232 232 231 229 226 225 223 221 220 220 218 217 217 217 218 218 218 217 214 210 205 201 198 197 200 202 200 197 195 192 190 194 197 196 196 202 208 210 209 210 214 216 215 214 214 214 211 210 210 211 212 213 213 214 214 216 220 224 227 228 229 235 240 246 258 271 277 284 291 297 302 307 315 324 331 336 339 338 335 334 336 340 339
236 235 235 235 235 233 230 227 225 223 222 222 221 221 221 221 221 221 222 220 217 213 208 204 203 203 202 199 194 189 188 189 191 194 197 199 202 206 210 214 215 218 220 220 218 216 217 216 214 212 211 211 212 214 214 214 214 216 219 223 228 229 229 233 239 244 253 264 270 276 284 291 294 297 305 315 321 328 330 329 328 329 332 335 335
239 238 237 236 235 235 234 230 228 226 224 223 223 222 223 224 224 224 224 223 221 218 215 211 210 210 206 201 196 192 191 194 197 198 199 202 206 209 212 214 216 218 220 221 219 218 219 219 217 215 215 214 214 215 216 216 215 216 219 224 228 231 232 233 237 243 249 256 266 274 280 286 289 292 297 305 312 319 322 320 320 325 328 329 329
245 242 240 238 237 237 236 233 231 230 229 227 226 226 226 227 228 227 227 227 225 224 222 221 220 218 212 208 205 201 199 201 203 203 204 206 208 211 214 216 217 218 220 220 219 219 219 219 218 218 218 218 217 217 217 217 217 219 221 225 228 231 232 232 234 240 247 254 263 272 278 284 286 287 291 299 306 310 313 311 312 318 323 325 326
249 246 244 242 239 237 237 237 236 236 234 233 232 231 231 232 232 231 231 231 230 229 228 228 227 225 221 217 213 209 208 210 210 209 210 210 211 214 217 219 220 222 223 222 221 220 219 219 218 219 221 222 221 220 219 220 221 221 223 226 228 229 231 232 233 236 244 251 260 269 275 279 281 283 287 295 299 302 303 304 306 310 314 318 324
254 252 249 246 243 240 240 240 240 239 238 237 237 237 237 237 237 236 236 236 235 234 234 234 232 229 227 223 218 215 215 217 218 217 216 215 216 218 222 224 227 228 229 227 224 222 222 221 219 220 223 225 226 226 226 226 226 226 225 227 230 230 230 231 231 235 242 249 257 265 271 275 278 281 284 289 292 295 296 296 299 303 306 311 319
260 257 253 250 248 247 245 244 243 242 242 242 242 242 241 241 241 241 241 241 240 239 238 238 237 234 231 227 220 217 218 220 222 222 221 221 221 224 226 229 231 233 233 230 226 224 223 223 221 220 223 226 227 228 229 229 230 230 229 230 231 231 231 232 232 237 244 249 254 261 268 274 276 279 282 285 287 288 289 289 291 295 300 306 312
259 257 255 252 250 249 249 247 246 247 247 247 246 245 244 243 242 242 242 243 244 244 243 242 240 237 234 229 223 221 221 223 224 225 225 225 227 229 230 232 234 236 236 232 227 224 224 223 221 221 223 225 226 228 229 230 231 233 233 233 233 233 234 236 237 240 245 250 254 260 266 271 275 278 281 283 282 281 284 287 288 289 293 300 306
259 256 254 252 250 250 250 249 248 247 246 246 247 247 246 245 244 244 244 244 245 246 246 245 243 240 237 233 229 227 226 226 226 228 228 229 230 232 234 235 236 237 236 231 226 224 223 222 222 223 224 225 227 229 229 231 233 235 236 236 236 236 237 238 240 244 248 252 256 259 263 269 274 276 278 279 279 279 282 283 283 284 287 292 299
262 258 255 255 254 252 252 251 250 249 247 246 247 248 248 248 247 247 247 247 246 246 246 245 243 241 239 237 234 232 231 230 231 232 233 234 235 236 238 240 239 238 235 229 225 224 224 223 224 225 225 226 227 228 229 232 234 235 238 238 237 237 239 239 242 247 252 254 257 259 262 267 272 274 275 275 275 277 279 279 279 281 284 286 293
265 261 259 257 255 254 254 253 252 251 251 250 250 251 251 251 251 251 250 250 249 247 247 246 244 242 240 239 237 236 235 234 235 235 236 238 239 240 240 240 239 236 232 228 225 224 224 224 225 225 226 226 226 227 229 232 234 236 239 240 239 239 241 243 246 250 253 255 258 261 263 267 270 269 270 272 272 274 277 277 277 280 281 283 289
272 267 264 262 259 257 256 255 254 254 255 255 255 255 255 255 255 254 253 253 252 250 248 247 246 244 242 241 240 239 238 237 237 237 237 238 239 239 238 238 238 236 233 229 227 226 225 225 225 225 226 227 227 228 229 232 235 237 240 241 241 241 243 244 248 251 253 256 260 261 263 268 269 267 267 269 270 272 275 277 278 279 279 280 284
282 276 270 267 266 264 262 260 258 258 259 259 260 260 259 258 257 257 256 255 254 253 251 250 248 247 246 244 242 241 240 239 239 240 239 239 239 238 237 238 239 237 234 230 228 227 226 225 225 226 226 226 227 228 230 233 235 238 241 242 242 243 244 246 249 252 254 257 260 262 263 266 267 265 265 266 268 270 275 277 277 277 276 277 281
288 283 277 274 273 271 269 267 264 263 263 263 263 264 264 262 261 261 259 258 257 256 255 253 252 250 249 248 246 245 245 244 243 243 241 240 239 239 239 239 239 237 234 231 228 227 226 225 225 226 226 226 227 229 231 233 236 239 242 244 244 245 247 249 251 254 257 259 260 262 264 265 265 264 264 266 268 272 276 277 276 274 274 275 278